[[{"header":{"parameterUnit":"m.s-1","parameterCategory":1,"la1":30.2991,"la2":30.254,"lo1":-89.0895,"lo2":-89.0444,"dy":0.0017,"dx":0.0017,"nx":28,"ny":28,"refTime":"2024-09-03T21:00:00:Z","depth":0,"parameterNumber":2,"parameterNumberName":"U-component_of_WINDS"},"data":[0,0,0,0,0,0,0,0,0,0,0,0,0,0,0,0,0,0,0,0,0,0,0,0,0,0,0,0,0,0,0,0,0,0,0,0,0,0,0,0,0,0,0,0,0,0,0,0,0,0,0,0,0,0,0,0,0,0,-4.0452,-4.0453,0,-4.0573,-4.0575,-4.0576,-4.0447,-4.0441,-4.0436,-4.0432,-4.0566,-4.0574,-4.0582,0,0,0,0,0,0,0,0,0,0,0,0,0,-4.0118,-4.0124,-4.0452,-4.0453,-4.0455,-4.0573,-4.0575,-4.0576,-4.0447,-4.0441,-4.0435,-4.0429,-4.0563,-4.0573,-4.0583,0,0,0,0,0,0,0,0,0,0,0,0,0,-4.0254,-4.0127,-4.0452,-4.0405,-4.0401,-4.0573,-4.0575,-4.0577,-4.0449,-4.0441,-4.0434,-4.0427,-4.056,-4.0572,-4.0584,-4.0811,0,0,-4.0622,-4.0627,0,0,0,0,0,0,0,0,-4.0246,-4.0266,-4.041,-4.0408,-4.0405,-4.0487,-4.0506,-4.0656,-4.0451,-4.0431,-4.0432,-4.0423,-4.0546,-4.0559,-4.0599,-4.0817,-4.0822,-4.0623,-4.063,-4.0636,-4.0639,0,0,0,0,0,0,0,-4.0237,-4.026,-4.05,-4.0412,-4.0409,-4.038,-4.0391,-4.0534,-4.053,-4.0432,-4.0423,-4.0439,-4.0543,-4.0587,-4.0601,-4.0824,-4.0622,-4.0633,-4.0641,-4.0646,-4.1238,-4.1246,0,0,0,0,0,0,-4.0231,-4.0253,-4.0496,-4.0504,-4.0305,-4.0392,-4.0405,-4.0468,-4.0528,-4.0529,-4.0445,-4.0432,-4.057,-4.0587,-4.0605,-4.0877,-4.0636,-4.0647,-4.0654,-4.1229,-4.1239,-4.1248,0,0,0,0,0,0,-4.0225,-4.0254,-4.0491,-4.0376,-4.0404,-4.0406,-4.0479,-4.0475,-4.0518,-4.0537,-4.0537,-4.049,-4.0565,-4.0588,-4.076,-4.088,-4.0653,-4.0664,-4.122,-4.1233,-4.1244,-4.1421,0,0,0,0,0,0,-4.0216,-4.0253,-4.0337,-4.0379,-4.041,-4.0642,-4.0486,-4.0482,-4.0539,-4.0523,-4.0579,-4.0581,-4.056,-4.0743,-4.0773,-4.0892,-4.0674,-4.1209,-4.1225,-4.124,-4.1404,-4.1438,-4.1466,0,0,0,0,0,-4.0204,-4.0383,-4.0341,-4.0372,-4.0515,-4.0649,-4.0668,-4.0637,-4.0549,-4.0635,-4.0647,-4.058,-4.0861,-4.0761,-4.0794,-4.092,-4.1202,-4.1221,-4.1239,-4.139,-4.1431,-4.1465,0,0,0,0,0,0,-4.0358,-4.0388,-4.0342,-4.0539,-4.0592,-4.0627,-4.0735,-4.0681,-4.0763,-4.0746,-4.0707,-4.0721,-4.0905,-4.0928,-4.0817,-4.1143,-4.1017,-4.1043,-4.1121,-4.116,-4.119,-4.1183,-4.0684,0,0,0,0,0,-4.0414,-4.0518,-4.0539,-4.0711,-4.074,-4.0733,-4.079,-4.0762,-4.0817,-4.084,-4.0865,-4.0924,-4.1025,-4.1093,-4.1188,-4.1406,-4.1419,-4.1508,-4.1539,-4.1565,-4.1589,-4.171,-4.1751,-4.131,-4.131,-4.1309,0,0,-4.0533,-4.0562,-4.063,-4.0743,-4.0781,-4.0892,-4.0753,-4.0876,-4.096,-4.086,-4.1024,-4.1045,-4.1108,-4.1305,-4.1393,-4.1331,-4.1713,-4.1588,-4.1608,-4.1619,-4.1733,-4.1775,-4.1812,-4.1323,-4.132,-4.1318,0,0,-4.0806,-4.0837,-4.0985,-4.1025,-4.1083,-4.1077,-4.1113,-4.1156,-4.1165,-4.1329,-4.1256,-4.1356,-4.1531,-4.158,-4.1628,-4.1921,-4.1863,-4.1952,-4.2116,-4.2234,-4.2269,-4.2299,-4.2407,-4.2446,-4.1976,-4.1976,-4.1977,0,-4.0948,-4.1109,-4.1068,-4.1197,-4.1251,-4.1161,-4.1313,-4.1355,-4.1443,-4.1484,-4.1411,-4.163,-4.1666,-4.1875,-4.1946,-4.1986,-4.2029,-4.1948,-4.2266,-4.2297,-4.2325,-4.2427,-4.2468,-4.1987,-4.1986,-4.1985,-4.1984,0,-4.1282,-4.1396,-4.1509,-4.1593,-4.1658,-4.1798,-4.1782,-4.1854,-4.182,-4.1823,-4.1992,-4.2032,-4.2134,-4.2181,-4.215,-4.2387,-4.2346,-4.2271,-4.2144,-4.2378,-4.2474,-4.2513,-4.2002,-4.1999,-4.1995,-4.1993,0,0,-4.1658,-4.1717,-4.1759,-4.1797,-4.1855,-4.1944,-4.2081,-4.2177,-4.2242,-4.2305,-4.2422,-4.2572,-4.2503,-4.2557,-4.253,-4.2634,-4.2867,-4.2546,-4.2547,-4.2607,-4.3135,-4.3194,-4.324,-4.2827,-4.2835,-4.2841,-4.3131,0,-4.1936,-4.217,-4.2137,-4.2365,-4.2471,-4.2388,-4.2507,-4.2558,-4.2564,-4.2658,-4.2666,-4.2775,-4.2673,-4.2706,-4.2803,-4.2818,-4.2973,-4.2796,-4.2941,-4.2946,-4.2931,-4.329,-4.3352,-4.3625,-4.3168,-4.3174,-4.3179,0,-4.2291,-4.2365,-4.2602,-4.2644,-4.2688,-4.2796,-4.2883,-4.2972,-4.3029,-4.3027,-4.3087,-4.3043,-4.3184,-4.3051,-4.3248,-4.3128,-4.3185,-4.3201,-4.3211,-4.3226,-4.3079,-4.3319,-4.371,-4.3753,-4.3237,-4.3232,-4.3228,0,-4.2546,-4.2705,-4.2868,-4.2902,-4.2955,-4.3034,-4.306,-4.3108,-4.3169,-4.3246,-4.3286,-4.3379,-4.3432,-4.3507,-4.349,-4.3395,-4.3693,-4.3558,-4.3699,-4.37,-4.3768,-4.3765,-4.4178,-4.3799,-4.3798,-4.3797,-4.3797,0,-4.2862,-4.3011,-4.2983,-4.3084,-4.325,-4.3212,-4.3378,-4.3395,-4.3439,-4.3544,-4.3477,-4.3578,-4.3548,-4.3649,-4.3636,-4.3803,-4.3826,-4.3832,-4.3828,-4.384,-4.384,-4.388,-4.3862,-4.3808,-4.3806,-4.3804,-4.3802,0,-4.3176,-4.3163,-4.3336,-4.337,-4.3383,-4.3504,-4.3536,-4.3632,-4.3632,-4.3767,-4.3796,-4.3799,-4.3913,-4.3903,-4.4033,-4.4025,-4.4232,-4.4204,-4.4213,-4.4208,-4.435,-4.4339,-4.4807,-4.4868,-4.4446,-4.445,-4.4453,0,-4.338,-4.3493,-4.3539,-4.3603,-4.3634,-4.3739,-4.38,-4.3767,-4.3834,-4.3907,-4.3997,-4.4104,-4.419,-4.4378,-4.4394,-4.4494,-4.4469,-4.4627,-4.4484,-4.4494,-4.4477,-4.4472,-4.4485,-4.4656,-4.4661,-4.4665,-4.4668,0,-4.3745,-4.3733,-4.3822,-4.391,-4.3984,-4.4053,-4.4114,-4.4172,-4.4145,-4.4225,-4.434,-4.4406,-4.4537,-4.4647,-4.4742,-4.4772,-4.4719,-4.4712,-4.475,-4.4766,-4.4768,-4.4773,-4.4293,-4.4702,-4.4699,-4.4696,-4.4694,-4.4693,-4.4013,-4.411,-4.4158,-4.4261,-4.4303,-4.4363,-4.4455,-4.4466,-4.4561,-4.4663,-4.4639,-4.477,-4.4826,-4.4947,-4.4987,-4.5091,-4.5035,-4.509,-4.5105,-4.512,-4.5138,-4.4748,-4.5108,-4.5107,-4.5106,-4.5105,-4.5105,0,-4.4378,-4.4404,-4.4498,-4.4585,-4.4667,-4.4604,-4.4669,-4.4743,-4.4858,-4.4913,-4.4997,-4.5131,-4.5238,-4.5261,-4.5364,-4.5444,-4.5422,-4.5472,-4.5468,-4.5477,-4.518,-4.5139,-4.5488,-4.5488,-4.5488,-4.5488,-4.5488,-4.5488,-4.4577,-4.4739,-4.4733,-4.4916,-4.4942,-4.5068,-4.5111,-4.5167,-4.521,-4.5362,-4.5449,-4.5462,-4.5506,-4.5611,-4.5707,-4.5712,-4.5755,-4.5816,-4.5812,-4.5535,-4.5497,-4.5461,-4.5421,-4.5825,-4.5825,-4.6099,-4.6102,-4.6104]},{"header":{"parameterUnit":"m.s-1","parameterCategory":1,"la1":30.2991,"la2":30.254,"lo1":-89.0895,"lo2":-89.0444,"dy":0.0017,"dx":0.0017,"nx":28,"ny":28,"refTime":"2024-09-03T21:00:00:Z","depth":0,"parameterNumber":3,"parameterNumberName":"V-component_of_WINDS"},"data":[0,0,0,0,0,0,0,0,0,0,0,0,0,0,0,0,0,0,0,0,0,0,0,0,0,0,0,0,0,0,0,0,0,0,0,0,0,0,0,0,0,0,0,0,0,0,0,0,0,0,0,0,0,0,0,0,0,0,-3.4826,-3.4825,0,-3.4727,-3.4726,-3.4725,-3.4642,-3.4641,-3.464,-3.4639,-3.4532,-3.453,-3.4528,0,0,0,0,0,0,0,0,0,0,0,0,0,-3.4936,-3.4934,-3.4826,-3.4824,-3.4823,-3.4727,-3.4726,-3.4724,-3.4642,-3.4641,-3.464,-3.4639,-3.4533,-3.453,-3.4528,0,0,0,0,0,0,0,0,0,0,0,0,0,-3.4868,-3.4934,-3.4826,-3.4771,-3.4765,-3.4727,-3.4726,-3.4724,-3.4642,-3.4641,-3.4639,-3.4638,-3.4534,-3.4531,-3.4528,-3.4536,0,0,-3.4518,-3.4517,0,0,0,0,0,0,0,0,-3.4872,-3.4864,-3.478,-3.4774,-3.4768,-3.4695,-3.4725,-3.4661,-3.4642,-3.4688,-3.4639,-3.4637,-3.4587,-3.458,-3.4564,-3.4531,-3.4526,-3.4518,-3.4516,-3.4515,-3.4514,0,0,0,0,0,0,0,-3.4876,-3.4867,-3.4786,-3.4779,-3.4771,-3.4748,-3.4737,-3.4713,-3.4646,-3.4684,-3.4678,-3.4668,-3.4583,-3.4567,-3.4561,-3.4525,-3.4518,-3.4516,-3.4514,-3.4513,-3.4489,-3.449,0,0,0,0,0,0,-3.4891,-3.4872,-3.4789,-3.4783,-3.4818,-3.4748,-3.4735,-3.472,-3.4646,-3.4634,-3.4669,-3.4664,-3.4573,-3.4564,-3.4557,-3.4559,-3.4515,-3.4512,-3.4511,-3.4488,-3.4489,-3.4491,0,0,0,0,0,0,-3.4893,-3.4884,-3.4793,-3.4826,-3.4813,-3.4747,-3.4731,-3.4719,-3.4702,-3.4635,-3.4622,-3.4665,-3.4571,-3.4561,-3.4541,-3.4554,-3.4511,-3.4508,-3.4487,-3.4488,-3.449,-3.4565,0,0,0,0,0,0,-3.4897,-3.4886,-3.489,-3.4827,-3.4811,-3.4782,-3.4731,-3.4718,-3.4698,-3.4691,-3.4628,-3.4616,-3.457,-3.4546,-3.4538,-3.4549,-3.4506,-3.4485,-3.4487,-3.449,-3.4561,-3.4569,-3.4576,0,0,0,0,0,-3.4901,-3.4914,-3.489,-3.4881,-3.4815,-3.4783,-3.4774,-3.4722,-3.4699,-3.4701,-3.4658,-3.4618,-3.4554,-3.4545,-3.4535,-3.4545,-3.4484,-3.4487,-3.4489,-3.4558,-3.4568,-3.4576,0,0,0,0,0,0,-3.4979,-3.4905,-3.4878,-3.4871,-3.4834,-3.4769,-3.4771,-3.4735,-3.4702,-3.4697,-3.4632,-3.4618,-3.4605,-3.4573,-3.4564,-3.4548,-3.4514,-3.4515,-3.4569,-3.4578,-3.4585,-3.4592,-3.4503,0,0,0,0,0,-3.4995,-3.4977,-3.4913,-3.4913,-3.4896,-3.4837,-3.4821,-3.4784,-3.4742,-3.4726,-3.4681,-3.464,-3.4611,-3.4593,-3.4562,-3.4556,-3.454,-3.4558,-3.4566,-3.4572,-3.4573,-3.4565,-3.4572,-3.45,-3.45,-3.45,0,0,-3.5029,-3.4986,-3.4979,-3.4928,-3.4895,-3.4875,-3.4824,-3.4806,-3.479,-3.4722,-3.4701,-3.4667,-3.4616,-3.4603,-3.4595,-3.4576,-3.459,-3.4576,-3.4582,-3.4579,-3.4569,-3.4575,-3.4582,-3.4501,-3.4501,-3.4501,0,0,-3.508,-3.5047,-3.5042,-3.5011,-3.4962,-3.4922,-3.4921,-3.4861,-3.4836,-3.4814,-3.4762,-3.4741,-3.4693,-3.4658,-3.4635,-3.4671,-3.4632,-3.4663,-3.4701,-3.4694,-3.47,-3.4704,-3.4715,-3.472,-3.4664,-3.4664,-3.4664,0,-3.5127,-3.5097,-3.5044,-3.5029,-3.5007,-3.4946,-3.494,-3.4911,-3.4854,-3.4839,-3.4819,-3.4755,-3.4718,-3.4694,-3.4703,-3.4687,-3.4681,-3.4669,-3.4704,-3.4708,-3.4711,-3.472,-3.4725,-3.4668,-3.4668,-3.4667,-3.4667,0,-3.5157,-3.5137,-3.5139,-3.5087,-3.5065,-3.5054,-3.4997,-3.4981,-3.4946,-3.4907,-3.4884,-3.4836,-3.4794,-3.4786,-3.4751,-3.4757,-3.4746,-3.4716,-3.468,-3.4723,-3.473,-3.4734,-3.4674,-3.4672,-3.4671,-3.467,0,0,-3.5253,-3.5172,-3.5173,-3.5148,-3.5089,-3.5071,-3.5056,-3.5017,-3.5003,-3.4965,-3.4949,-3.4909,-3.488,-3.4853,-3.4814,-3.4808,-3.4836,-3.4777,-3.4775,-3.4788,-3.4836,-3.4858,-3.4863,-3.4811,-3.4811,-3.4812,-3.484,0,-3.5293,-3.5265,-3.5216,-3.5203,-3.5182,-3.5124,-3.5111,-3.5072,-3.5035,-3.501,-3.4968,-3.494,-3.4906,-3.4889,-3.488,-3.4835,-3.4845,-3.4832,-3.4792,-3.4791,-3.4805,-3.4868,-3.4891,-3.492,-3.4842,-3.4843,-3.4843,0,-3.5335,-3.5302,-3.5288,-3.5229,-3.5218,-3.5208,-3.5166,-3.5144,-3.5097,-3.5071,-3.5041,-3.4998,-3.4976,-3.4945,-3.4912,-3.4905,-3.4885,-3.486,-3.486,-3.4852,-3.4819,-3.486,-3.4928,-3.4932,-3.4848,-3.4847,-3.4847,0,-3.5404,-3.5356,-3.5341,-3.5321,-3.5253,-3.5246,-3.5217,-3.5169,-3.5148,-3.5111,-3.5095,-3.5056,-3.5034,-3.5002,-3.4949,-3.4931,-3.4921,-3.4886,-3.4895,-3.4897,-3.4895,-3.4895,-3.4959,-3.4886,-3.4886,-3.4886,-3.4885,0,-3.5453,-3.5445,-3.5371,-3.5361,-3.535,-3.5293,-3.5283,-3.5248,-3.5206,-3.5186,-3.5133,-3.5115,-3.5046,-3.5019,-3.4977,-3.4955,-3.4945,-3.4921,-3.491,-3.4925,-3.4928,-3.491,-3.4906,-3.4887,-3.4886,-3.4886,-3.4886,0,-3.5528,-3.5478,-3.5457,-3.5394,-3.5377,-3.5372,-3.5317,-3.5303,-3.5264,-3.5239,-3.523,-3.5167,-3.5132,-3.5076,-3.5025,-3.4996,-3.498,-3.4962,-3.4997,-3.4989,-3.5001,-3.5,-3.5054,-3.5057,-3.4985,-3.4986,-3.4986,0,-3.5561,-3.5554,-3.5491,-3.5475,-3.5448,-3.5423,-3.5401,-3.5343,-3.5322,-3.5268,-3.526,-3.5222,-3.5188,-3.5135,-3.5083,-3.5042,-3.5021,-3.5043,-3.5015,-3.503,-3.5019,-3.5019,-3.5017,-3.5049,-3.505,-3.5051,-3.5052,0,-3.5624,-3.56,-3.5572,-3.5534,-3.551,-3.5477,-3.5441,-3.543,-3.5365,-3.5343,-3.5308,-3.5282,-3.523,-3.5191,-3.5143,-3.511,-3.5069,-3.5062,-3.5061,-3.5076,-3.5095,-3.5082,-3.5012,-3.506,-3.5059,-3.5059,-3.5058,-3.5058,-3.5678,-3.5668,-3.5622,-3.5591,-3.5559,-3.5526,-3.551,-3.5469,-3.544,-3.5394,-3.5361,-3.5328,-3.5278,-3.521,-3.5179,-3.515,-3.5132,-3.5132,-3.5131,-3.5132,-3.5137,-3.5102,-3.5141,-3.514,-3.514,-3.514,-3.514,0,-3.5736,-3.5704,-3.5676,-3.5629,-3.5604,-3.5571,-3.5529,-3.5509,-3.5481,-3.544,-3.5408,-3.5366,-3.5328,-3.5273,-3.523,-3.5217,-3.5197,-3.5207,-3.5207,-3.5199,-3.5156,-3.516,-3.5224,-3.5224,-3.5224,-3.5224,-3.5224,-3.5224,-3.5764,-3.5745,-3.5715,-3.5679,-3.5645,-3.5614,-3.5592,-3.5561,-3.5528,-3.5484,-3.5453,-3.5418,-3.537,-3.5323,-3.5286,-3.527,-3.5255,-3.5271,-3.525,-3.521,-3.5202,-3.5195,-3.5198,-3.5269,-3.5269,-3.5294,-3.5294,-3.5295]}]]